User: anonymous   Login
Location: Chanteloup
(48.8560°N, 2.7390°E)
Time: 08:28:24
(UTC+00:00)
Language:

SJ-11-01 - Orbit

View from above orbital plane
View from above orbital plane
View from above satellite
View from above satellite

Ground track
Ground track

The orbit data is extracted from the following two-line orbital elements,

1 36088U 09061A   22024.91506224  .00000157  00000-0  41622-4 0  9992
2 36088  97.9397  46.0272 0012732  39.4606 320.7521 14.60260581650199
Epoch (UTC): 24 January 2022 21:57:41
Eccentricity: 0.0012732
inclination: 97.9397°
perigee height: 683 km
apogee height: 701 km
right ascension of ascending node: 46.0272°
argument of perigee: 39.4606°
revolutions per day: 14.60260581
mean anomaly at epoch: 320.7521°
orbit number at epoch: 65019

The dashed part of the orbit path shows where the satellite is in the earth's shadow,  

DLR